[[{"header":{"parameterUnit":"m.s-1","parameterCategory":1,"la1":30.2992,"la2":30.254,"lo1":-89.0895,"lo2":-89.0443,"dy":0.0025,"dx":0.0025,"nx":19,"ny":19,"refTime":"2026-04-17T03:00:00:Z","depth":0,"parameterNumber":2,"parameterNumberName":"U-component_of_WINDS"},"data":[0,0,0,0.9477,0.9477,0.9459,0.9459,0.9446,0.9446,0,0,0,0,0,0,0,0,0,0,0,0.9489,0.9489,0.9477,0.9477,0.9459,0.9459,0.9446,0.9446,0,0,0,0,0,0,0,0,0,0,0,0.9489,0.9489,0.9489,0.9477,0.9459,0.9459,0.9446,0.9455,0,0,0,0,0,0,0,0,0,0,0.9471,0.9489,0.9489,0.9489,0.9477,0.9459,0.9459,0.9456,0.9455,0.9458,0,0.9464,0,0.9455,0.9445,0.9445,0,0,0,0.9471,0.949,0.9479,0.9489,0.9477,0.9459,0.9466,0.9455,0.9454,0.9457,0.9464,0.9463,0.9454,0.9445,0.9445,0.9483,0.9483,0,0,0.9472,0.949,0.948,0.9479,0.9484,0.9466,0.9465,0.9454,0.9462,0.9463,0.9462,0.9454,0.9445,0.9445,0.9482,0.9483,0,0,0,0.9479,0.9491,0.9479,0.948,0.9476,0.9466,0.9465,0.9463,0.9458,0.9462,0.9454,0.9445,0.9445,0.9482,0.9482,0.952,0,0,0,0.9479,0.9494,0.948,0.9491,0.9476,0.947,0.9474,0.9459,0.9457,0.9454,0.9445,0.9445,0.9481,0.9482,0.9517,0.9534,0,0,0,0.9488,0.9495,0.9495,0.9492,0.9485,0.9469,0.9463,0.9458,0.9452,0.9445,0.9445,0.9481,0.9482,0.9516,0.9531,0.9547,0,0,0,0.9502,0.953,0.9496,0.9523,0.9485,0.9493,0.9463,0.9468,0.9467,0.9445,0.9481,0.9482,0.9515,0.9529,0.9545,0.9563,0.9572,0,0,0.9547,0.9536,0.955,0.952,0.9538,0.9494,0.9517,0.95,0.9483,0.9483,0.9484,0.9518,0.9531,0.9546,0.9622,0.9629,0,0,0,0.957,0.9581,0.9582,0.9581,0.9568,0.9558,0.9535,0.9527,0.9527,0.9487,0.9529,0.9536,0.9544,0.9551,0.9558,0.9563,0.9487,0.9487,0.9487,0.9658,0.9634,0.9656,0.963,0.9629,0.9604,0.9601,0.9587,0.9564,0.9574,0.9574,0.9622,0.9632,0.9636,0.9642,0.9582,0.9583,0.9583,0.9583,0.9719,0.9728,0.9696,0.9705,0.968,0.9687,0.9662,0.9646,0.9647,0.9621,0.9628,0.96,0.9646,0.9649,0.9585,0.9585,0.9585,0.9584,0.9584,0.9772,0.9772,0.9763,0.9758,0.9756,0.9729,0.9731,0.9708,0.9686,0.9692,0.9687,0.9687,0.9681,0.9692,0.9692,0.9692,0.9693,0.9693,0.9693,0.983,0.9818,0.9823,0.981,0.9805,0.9796,0.9769,0.9763,0.975,0.9733,0.9733,0.9707,0.9655,0.9641,0.9695,0.9695,0.9694,0.9694,0.9694,0.9897,0.9878,0.9886,0.9881,0.9862,0.986,0.983,0.982,0.9811,0.9812,0.9785,0.9751,0.9738,0.9733,0.9721,0.9792,0.9792,0.9792,0.9792,0.994,0.9931,0.9933,0.9926,0.9916,0.989,0.9896,0.9875,0.985,0.9842,0.9829,0.9812,0.9808,0.9797,0.979,0.9779,0.9863,0.9863,0.9863,0.9979,0.9968,0.9979,0.9955,0.9937,0.9922,0.9927,0.9919,0.9886,0.9865,0.9835,0.9832,0.9805,0.9797,0.9775,0.9765,0.9744,0,0]},{"header":{"parameterUnit":"m.s-1","parameterCategory":1,"la1":30.2992,"la2":30.254,"lo1":-89.0895,"lo2":-89.0443,"dy":0.0025,"dx":0.0025,"nx":19,"ny":19,"refTime":"2026-04-17T03:00:00:Z","depth":0,"parameterNumber":3,"parameterNumberName":"V-component_of_WINDS"},"data":[0,0,0,4.9529,4.9532,4.9664,4.9664,4.9835,4.9836,0,0,0,0,0,0,0,0,0,0,0,4.9496,4.9498,4.9529,4.9532,4.9663,4.9664,4.9835,4.9836,0,0,0,0,0,0,0,0,0,0,0,4.9496,4.9498,4.9499,4.9533,4.9663,4.9664,4.9834,4.9733,0,0,0,0,0,0,0,0,0,0,4.9604,4.9582,4.9497,4.9499,4.9534,4.9663,4.9664,4.9728,4.9739,4.9778,0,4.9818,0,4.983,4.9848,4.9849,0,0,0,4.9526,4.9573,4.9603,4.95,4.9535,4.9663,4.9603,4.9734,4.9747,4.9793,4.9821,4.9827,4.9833,4.985,4.9851,5.0102,5.0104,0,0,4.9519,4.9523,4.9594,4.9611,4.9596,4.9598,4.9607,4.9742,4.9771,4.9821,4.9831,4.9836,4.9851,4.9852,5.0101,5.0103,0,0,0,4.9502,4.9518,4.9544,4.9605,4.9628,4.9602,4.9612,4.9765,4.9773,4.9833,4.9838,4.9852,4.9854,5.0099,5.0101,5.0177,0,0,0,4.9497,4.9508,4.9541,4.9545,4.9626,4.9699,4.9632,4.9764,4.9779,4.9837,4.9852,4.9856,5.0098,5.01,5.0172,5.0211,0,0,0,4.9485,4.9507,4.9528,4.9545,4.9602,4.9697,4.9713,4.9767,4.9783,4.9849,4.9856,5.0097,5.01,5.0167,5.0203,5.0277,0,0,0,4.9473,4.9594,4.953,4.9666,4.9601,4.9744,4.9712,4.9818,4.9884,4.9853,5.0098,5.0101,5.0165,5.0198,5.0272,5.0339,5.0368,0,0,4.9627,4.9612,4.9692,4.9639,4.9795,4.9724,4.9889,4.9945,4.9946,5.0049,5.0055,5.0173,5.0203,5.0276,5.0532,5.0556,0,0,0,4.9742,4.9799,4.9839,4.9904,4.9951,4.9993,5.0024,5.0043,5.0131,5.0001,5.0221,5.0238,5.0281,5.0312,5.0332,5.0367,5.0117,5.0116,5.0116,4.9964,4.9961,5.0091,5.0103,5.0166,5.0195,5.0244,5.0275,5.0252,5.0304,5.0334,5.0491,5.0528,5.0543,5.0579,5.0371,5.0371,5.0371,5.0371,5.0188,5.0267,5.0234,5.0349,5.0342,5.0437,5.0468,5.0448,5.0532,5.0468,5.0505,5.0434,5.0568,5.06,5.0377,5.0376,5.0375,5.0375,5.0374,5.0332,5.0369,5.0393,5.0484,5.0553,5.0559,5.0642,5.0633,5.0624,5.0662,5.069,5.0689,5.0684,5.0676,5.0677,5.0677,5.0678,5.0678,5.0679,5.0471,5.0496,5.0568,5.0627,5.0665,5.0714,5.0743,5.0779,5.0817,5.0803,5.0803,5.0773,5.0584,5.0535,5.0687,5.0685,5.0684,5.0684,5.0683,5.0696,5.0644,5.0756,5.0795,5.086,5.0927,5.0915,5.0989,5.1018,5.1057,5.1019,5.0882,5.0865,5.0849,5.0808,5.1022,5.1022,5.1022,5.1022,5.0816,5.0808,5.0918,5.098,5.104,5.1039,5.116,5.1182,5.1195,5.1211,5.1179,5.1125,5.111,5.1102,5.1081,5.1042,5.1311,5.1311,5.1312,5.0953,5.0949,5.1057,5.1072,5.1121,5.1163,5.1275,5.1344,5.1348,5.1323,5.1223,5.1211,5.1123,5.1096,5.1068,5.1035,5.0965,0,0]}]]